TimeCDT,TemperatureF,Dew PointF,Humidity,Sea Level PressureIn,VisibilityMPH,Wind Direction,Wind SpeedMPH,Gust SpeedMPH,PrecipitationIn,Events,Conditions,WindDirDegrees,DateUTC
12:56 AM,68.0,64.9,90,30.02,10.0,South,11.5,-,N/A,,Clear,190,2013-06-23 05:56:00
1:56 AM,66.9,64.9,93,30.02,10.0,South,6.9,-,N/A,,Clear,190,2013-06-23 06:56:00
2:56 AM,66.9,64.9,93,30.03,10.0,South,9.2,-,N/A,,Clear,170,2013-06-23 07:56:00
3:56 AM,66.9,65.8,96,30.02,7.0,South,8.1,-,N/A,,Clear,170,2013-06-23 08:56:00
4:56 AM,68.0,65.8,93,30.02,10.0,South,5.8,-,N/A,,Clear,190,2013-06-23 09:56:00
5:56 AM,68.0,65.8,93,30.05,10.0,South,11.5,-,N/A,,Clear,180,2013-06-23 10:56:00
6:56 AM,68.0,65.8,93,30.05,9.0,South,11.5,-,0.00,Rain,Light Rain,190,2013-06-23 11:56:00
7:56 AM,68.9,66.9,93,30.03,10.0,South,11.5,-,0.00,,Clear,190,2013-06-23 12:56:00
8:56 AM,73.9,66.9,79,30.02,10.0,South,13.8,-,N/A,,Clear,190,2013-06-23 13:56:00
9:56 AM,77.9,68.0,71,30.02,10.0,SSW,16.1,-,N/A,,Clear,210,2013-06-23 14:56:00
10:56 AM,79.9,70.0,72,30.03,10.0,SW,16.1,26.5,N/A,,Clear,220,2013-06-23 15:56:00
11:56 AM,81.9,70.9,69,30.03,10.0,SW,15.0,-,N/A,,Clear,230,2013-06-23 16:56:00
12:56 PM,82.9,70.9,67,30.02,10.0,SSW,17.3,23.0,N/A,,Clear,210,2013-06-23 17:56:00
1:56 PM,83.8,68.9,61,30.01,10.0,South,18.4,-,N/A,,Clear,190,2013-06-23 18:56:00
2:56 PM,83.8,72.0,67,29.97,10.0,South,21.9,27.6,N/A,,Clear,180,2013-06-23 19:56:00
3:56 PM,81.9,70.9,69,29.96,10.0,SSW,21.9,27.6,N/A,,Partly Cloudy,200,2013-06-23 20:56:00
4:56 PM,79.0,70.9,76,29.98,10.0,SSW,15.0,-,N/A,,Partly Cloudy,200,2013-06-23 21:56:00
5:56 PM,77.9,70.0,76,29.97,10.0,South,12.7,-,N/A,,Clear,190,2013-06-23 22:56:00
6:56 PM,77.0,70.9,81,29.95,10.0,South,13.8,-,N/A,,Clear,170,2013-06-23 23:56:00
7:56 PM,77.0,72.0,84,29.94,10.0,South,11.5,-,N/A,,Clear,180,2013-06-24 00:56:00
8:56 PM,75.9,70.9,84,29.96,10.0,South,13.8,-,N/A,,Clear,190,2013-06-24 01:56:00
9:43 PM,75.2,71.6,89,30.03,10.0,South,9.2,-,N/A,,Mostly Cloudy,190,2013-06-24 02:43:00
9:56 PM,73.9,70.9,90,30.00,10.0,SSW,8.1,-,N/A,,Mostly Cloudy,210,2013-06-24 02:56:00
10:14 PM,73.4,71.6,94,30.04,10.0,SW,11.5,-,N/A,,Partly Cloudy,220,2013-06-24 03:14:00
10:56 PM,72.9,68.0,85,30.00,10.0,West,5.8,-,N/A,,Clear,260,2013-06-24 03:56:00
11:56 PM,70.0,68.0,93,30.01,10.0,SW,5.8,-,N/A,,Clear,220,2013-06-24 04:56:00